EO-88
1 42017U 17008BX 17088.92505911 .00003720 00000-0 16304-3 0 9995
2 42017 097.5026 150.5122 0008396 131.6082 228.5803 15.22599348006437
/EX
1
0
SB KEPS @ AMSAT $ORB17082.N
2Line Orbital Elements 17082.AMSAT
HR AMSAT ORBITAL ELEMENTS FOR AMATEUR SATELLITES IN NASA FORMAT
FROM WA5QGD FORT WORTH,TX March 23, 2017
BID: ORB17082.N
DECODE 2-LINE ELSETS WITH THE FOLLOWING KEY:
1 AAAAAU 00 0 0 BBBBB.BBBBBBBB .CCCCCCCC 00000-0 00000-0 0 DDDZ
2 AAAAA EEE.EEEE FFF.FFFF GGGGGGG HHH.HHHH III.IIII JJ.JJJJJJJJKKKKKZ
KEY: A-CATALOGNUM B-EPOCHTIME C-DECAY D-ELSETNUM E-INCLINATION F-RAAN
G-ECCENTRICITY H-ARGPERIGEE I-MNANOM J-MNMOTION K-ORBITNUM Z-CHECKSUM
TO ALL RADIO AMATEURS BT
AO-07
1 07530U 74089B 17081.88297604 -.00000025 00000-0 11980-3 0 9994
2 07530 101.6205 052.3033 0012293 128.3407 259.6083 12.53626092938043
UO-11
1 14781U 84021B 17081.59412509 .00000126 00000-0 21856-4 0 9993
2 14781 097.7091 130.4467 0009868 119.3209 240.8992 14.82870369756513
LO-19
1 20442U 90005G 17081.41452241 .00000017 00000-0 22121-4 0 9996
2 20442 098.5696 018.8395 0012692 047.8922 312.3339 14.32852417419198
HUBBLE
1 20580U 90037B 17081.83418372 .00000696 00000-0 32093-4 0 9999
2 20580 028.4693 218.1001 0002664 329.1105 167.1026 15.08707767277233
MET-2/21
1 22782U 93055A 17081.62991296 .00000036 00000-0 19614-4 0 9998
2 22782 082.5457 092.2800 0021472 316.5110 172.3821 13.83797331189454
AO-27
1 22825U 93061C 17081.84963317 .00000020 00000-0 25310-4 0 9993
2 22825 098.8020 046.4179 0007645 218.1235 141.9406 14.29989536224798
IO-26
1 22826U 93061D 17081.90049244 .00000021 00000-0 25741-4 0 9994
2 22826 098.7963 046.5614 0008305 208.0863 151.9872 14.30317538224997
FO-29
1 24278U 96046B 17081.94393161 -.00000060 00000-0 -24355-4 0 9992
2 24278 098.5764 336.6289 0349994 200.6619 158.0068 13.53074978016960
NOAA-15
1 25338U 98030A 17081.89827641 .00000043 00000-0 37149-4 0 9998
2 25338 098.7851 092.6253 0011720 097.0845 263.1667 14.25782056980448
GO-32
1 25397U 98043D 17081.88700912 -.00000010 00000-0 14571-4 0 9996
2 25397 098.6020 026.0804 0000349 190.5198 169.5974 14.23617524971296
ISS
1 25544U 98067A 17081.94505660 .00001086 00000-0 23612-4 0 9995
2 25544 051.6417 108.1921 0007084 326.6531 113.2343 15.54234604048343
NO-44
1 26931U 01043C 17081.82824488 -.00000014 00000-0 26297-4 0 9996
2 26931 067.0515 314.0143 0007532 278.0979 081.9268 14.30451645807925
SO-50
1 27607U 02058C 17081.84754067 .00000059 00000-0 29066-4 0 9996
2 27607 064.5567 029.3933 0034766 137.9726 222.4053 14.75296623766245
CO-55
1 27844U 03031E 17081.95257677 .00000079 00000-0 55376-4 0 9993
2 27844 098.6920 092.2064 0008822 232.6290 127.4085 14.22022582712025
CO-57
1 27848U 03031J 17081.01407913 .00000052 00000-0 43789-4 0 9990
2 27848 098.7016 091.5026 0008590 245.9434 114.0845 14.21638869711783
RS-22
1 27939U 03042A 17081.94557517 .00000186 00000-0 41962-4 0 9990
2 27939 097.9247 229.5350 0014030 136.1135 337.4627 14.66535654720538
NOAA-18
1 28654U 05018A 17081.90842091 .00000043 00000-0 48663-4 0 9997
2 28654 099.1894 101.9857 0013531 316.6237 043.3868 14.12329429609980
CO-58
1 28895U 05043F 17081.88307262 .00000195 00000-0 46258-4 0 9991
2 28895 097.8542 248.2018 0017988 059.6364 300.6615 14.63359323607632
CO-65
1 32785U 08021C 17081.48733861 .00000339 00000-0 42721-4 0 9998
2 32785 097.5750 109.6846 0014754 095.5596 264.7304 14.87822313481934
AAUSAT2
1 32788U 08021F 17081.89078263 .00000521 00000-0 54307-4 0 9990
2 32788 097.5693 121.0875 0013381 063.4494 296.8096 14.93738221482698
DO-64
1 32789U 08021G 17081.90815178 .00002598 00000-0 18937-3 0 9991
2 32789 097.5693 141.9313 0013515 041.0704 319.1538 15.04535463483790
CO-66
1 32791U 08021J 17081.08637138 .00000426 00000-0 49476-4 0 9992
2 32791 097.5729 113.3931 0015091 084.2292 276.0647 14.90126939482096
RS-30
1 32953U 08025A 17081.92314384 .00000024 00000-0 97803-4 0 9995
2 32953 082.4999 293.3069 0019604 112.7537 247.5617 12.43075291400700
PRISM
1 33493U 09002B 17081.85784785 .00000120 00000-0 16630-4 0 9995
2 33493 098.1806 320.5953 0016198 011.9259 348.2355 14.95512463442870
NOAA-19
1 33591U 09005A 17081.90053774 .00000140 00000-0 10125-3 0 9994
2 33591 099.0827 047.5471 0014392 151.1516 209.0454 14.12163508418216
TISAT-1
1 36799U 10035E 17081.80217292 .00000710 00000-0 79107-4 0 9997
2 36799 098.0496 202.8493 0011232 247.7565 112.2461 14.90274682362714
JUGNU
1 37839U 11058B 17081.83727189 .00000324 00000-0 30799-4 0 9998
2 37839 019.9610 254.0572 0019018 311.8146 185.2273 14.12575544281474
SRMSAT
1 37841U 11058D 17081.91693272 .00000325 00000-0 33451-4 0 9994
2 37841 019.9724 293.4828 0011820 213.5330 276.6713 14.10567915280991
AO-71
1 37854U 11061E 17081.82960779 .00001295 00000-0 77656-4 0 9993
2 37854 101.7115 271.5022 0168519 330.5200 028.6587 15.03735021293958
HRBE
1 37855U 11061F 17081.44681344 .00001648 00000-0 94655-4 0 9990
2 37855 101.7245 268.7847 0181781 337.6402 021.6955 15.02690005293294
ALMASAT-1
1 38078U 12006B 17081.89660383 .00033408 37228-5 40684-3 0 9995
2 38078 069.4359 003.9385 0321874 057.5122 305.6720 15.17847815271672
HORYU-2
1 38340U 12025D 17081.95218348 .00000315 00000-0 54679-4 0 9999
2 38340 098.3759 082.8427 0011147 200.1966 159.8803 14.75276986250163
RS-40
1 38735U 12041C 17081.89550442 .00000014 00000-0 33886-4 0 9995
2 38735 082.4803 017.9886 0015843 214.0024 146.0041 12.42573153210952
BEESAT-3
1 39134U 13015E 17081.56322324 .00001920 00000-0 10435-3 0 9992
2 39134 064.8676 145.9832 0031579 292.1664 067.6111 15.17427372216332
BEESAT-2
1 39136U 13015G 17081.56682375 .00001483 00000-0 89225-4 0 9997
2 39136 064.8698 155.4800 0028714 295.7122 064.1039 15.14787492215760
ZACUBE-1
1 39417U 13066B 17081.93069027 .00000321 00000-0 47205-4 0 9991
2 39417 097.6409 128.3084 0059265 190.6454 169.3509 14.80644393180018
TRITON-1
1 39427U 13066M 17081.93271212 .00000283 00000-0 53796-4 0 9992
2 39427 097.6437 103.0474 0112940 264.9639 093.8667 14.67403127178200
GOMX-1
1 39430U 13066Q 17081.95575238 .00000330 00000-0 69538-4 0 9997
2 39430 097.6647 087.5717 0150951 315.7973 043.1247 14.58814276177171
LO-74
1 39440U 13066AA 17081.91161165 .00000283 00000-0 46911-4 0 9991
2 39440 097.6389 118.1530 0079985 219.3962 140.1414 14.75388769178170
AO-73
1 39444U 13066AE 17081.61484173 .00000378 00000-0 53522-4 0 9990
2 39444 097.6425 128.9511 0058514 188.7184 171.3018 14.81361425178200
SPROUT
1 39770U 14029E 17081.78038709 .00000593 00000-0 74001-4 0 9994
2 39770 097.8685 182.0312 0007761 246.2540 113.7882 14.86047807153309
DUCHIFAT-1
1 40021U 14033M 17081.72568295 .00000561 00000-0 64468-4 0 9993
2 40021 097.9222 354.7550 0011967 222.0177 138.0123 14.89770916149727
NANOSATCBR1
1 40024U 14033Q 17081.82344888 .00000553 00000-0 64543-4 0 9992
2 40024 097.9187 353.8731 0011252 222.2181 137.8170 14.89113022149172
EO-79
1 40025U 14033R 17081.69009091 .00000419 00000-0 51318-4 0 9999
2 40025 097.9172 352.9061 0011414 225.5214 134.5070 14.88336275149625
DTUSAT-2
1 40030U 14033W 17081.27000447 .00000397 00000-0 49373-4 0 9998
2 40030 097.9142 351.6872 0010944 220.3290 139.7115 14.87961331149014
EO-80
1 40032U 14033Y 17081.77915789 .00000393 00000-0 48996-4 0 9995
2 40032 097.9148 352.2023 0010936 219.1642 140.8784 14.87895661149078
ANTELSAT
1 40034U 14033AA 17081.91608051 .00000288 00000-0 50786-4 0 9997
2 40034 097.8715 328.4646 0058291 209.2388 150.5554 14.73633486147686
